CW0677 Weather Reports


Display with metric or nautical units.
time (UTC)temp
F
wind
direction
speed
MPH
gust
MPH
rain 1hr
in
rain 24hr
in
rain mn
in
humidity
%
barometer
mb
20260505204603 64 279 3.0 10.0 0.00 0.50 0.07 74 1015.5
20260505203056 63 246 0.0 8.0 0.00 0.50 0.07 73 1015.5
20260505201608 63 273 1.0 6.0 0.00 0.50 0.07 74 1015.5
20260505194558 63 300 4.0 9.0 0.00 0.50 0.07 72 1015.4
20260505193057 65 313 2.0 6.0 0.00 0.50 0.07 69 1015.5
20260505191605 64 269 1.0 7.0 0.00 0.50 0.07 72 1015.7
20260505190118 62 262 3.0 9.0 0.00 0.50 0.07 73 1015.7
20260505184607 63 344 2.0 6.0 0.00 0.50 0.07 73 1015.7
20260505183057 63 0 3.0 6.0 0.00 0.50 0.07 72 1015.8
20260505181559 62 344 0.0 4.0 0.00 0.50 0.07 75 1015.7
20260505180058 61 295 2.0 7.0 0.00 0.50 0.07 75 1015.8
20260505174559 61 249 2.0 7.0 0.00 0.50 0.07 76 1015.6
20260505173100 61 351 0.0 2.0 0.00 0.50 0.07 75 1015.5
20260505171559 61 277 0.0 3.0 0.00 0.50 0.07 76 1015.5
20260505170104 59 0 1.0 4.0 0.00 0.50 0.07 79 1015.5
20260505164729 59 0 0.0 3.0 0.00 0.50 0.07 81 1015.6
20260505164609 59 0 0.0 3.0 0.00 0.50 0.07 81 1015.6
20260505163105 58 284 2.0 4.0 0.00 0.50 0.07 83 1015.5
20260505161600 57 346 2.0 4.0 0.00 0.50 0.07 86 1015.4
20260505153108 55 198 0.0 3.0 0.00 0.50 0.07 94 1015.2
20260505151556 54 267 0.0 2.0 0.00 0.50 0.07 95 1015.0
20260505150113 53 0 1.0 2.0 0.00 0.50 0.07 95 1015.1
20260505140105 53 0 0.0 1.0 0.00 0.50 0.07 95 1014.6
20260505124605 53 0 0.0 0.0 0.00 0.50 0.07 95 1013.9
20260505123110 53 0 0.0 0.0 0.00 0.50 0.07 95 1013.9
20260505121555 53 0 0.0 0.0 0.00 0.50 0.07 95 1013.9
20260505120055 53 0 0.0 1.0 0.00 0.50 0.07 95 1013.8
20260505114601 53 236 0.0 2.0 0.00 0.50 0.07 95 1014.0
20260505113055 53 0 0.0 2.0 0.00 0.50 0.07 95 1014.0
20260505111559 53 0 0.0 2.0 0.00 0.50 0.07 94 1014.1
20260505101555 53 0 0.0 3.0 0.01 0.50 0.07 94 1014.2
20260505100100 53 228 0.0 3.0 0.02 0.50 0.07 94 1014.2
20260505094552 53 0 0.0 3.0 0.05 0.50 0.07 94 1014.2
20260505093052 53 235 1.0 3.0 0.06 0.49 0.06 94 1014.1
20260505091553 53 266 1.0 3.0 0.06 0.49 0.06 94 1014.0
20260505090106 53 180 0.0 2.0 0.05 0.48 0.05 94 1014.7
20260505084554 53 0 0.0 3.0 0.02 0.45 0.02 94 1014.8
20260505083107 53 186 0.0 3.0 0.00 0.43 0.00 94 1015.0
20260505081556 53 246 0.0 2.0 0.00 0.43 0.00 94 1014.7
20260505080056 53 168 0.0 2.0 0.00 0.43 0.00 94 1015.0
20260505074552 53 155 0.0 3.0 0.01 0.43 0.00 94 1015.1
20260505073059 53 161 0.0 3.0 0.02 0.43 0.00 94 1015.0
20260505071557 53 175 1.0 3.0 0.12 0.43 0.00 93 1015.0
20260505070057 53 234 1.0 2.0 0.13 0.43 0.00 94 1014.7
20260505064554 53 125 1.0 4.0 0.12 0.42 0.42 94 1015.2
20260505063054 53 294 3.0 8.0 0.11 0.41 0.41 93 1014.7
20260505061600 53 287 0.0 3.0 0.01 0.31 0.31 93 1015.4
20260505060056 53 157 0.0 3.0 0.00 0.30 0.30 93 1015.4
20260505054558 53 0 1.0 4.0 0.00 0.30 0.30 93 1015.3
20260505053103 53 250 1.0 3.0 0.00 0.30 0.30 93 1015.1
20260505051553 53 234 2.0 5.0 0.00 0.30 0.30 93 1015.1
20260505050127 54 232 2.0 5.0 0.00 0.30 0.30 93 1015.6
20260505041605 54 218 2.0 9.0 0.01 0.30 0.30 93 1015.6
20260505040100 54 181 1.0 5.0 0.01 0.30 0.30 93 1015.5
20260505034555 54 153 1.0 3.0 0.01 0.30 0.30 93 1015.2
20260505033053 54 0 0.0 2.0 0.02 0.30 0.30 92 1014.9
20260505031559 54 161 0.0 4.0 0.03 0.29 0.29 92 1014.4
20260505030055 54 229 0.0 4.0 0.07 0.29 0.29 92 1014.3
20260505024555 54 0 1.0 3.0 0.09 0.29 0.29 92 1014.7
20260505023054 54 0 1.0 4.0 0.09 0.28 0.28 92 1015.2
20260505021555 54 244 1.0 2.0 0.09 0.26 0.26 91 1015.0
20260505020055 54 0 0.0 3.0 0.07 0.22 0.22 91 1015.4
20260505014609 55 206 1.0 5.0 0.06 0.20 0.20 91 1015.4
20260505013053 54 216 1.0 4.0 0.06 0.19 0.19 90 1015.3
20260505011603 55 171 2.0 5.0 0.05 0.17 0.17 90 1015.4
20260505010057 55 195 1.0 3.0 0.04 0.15 0.15 90 1015.6
20260505004551 55 225 1.0 4.0 0.04 0.14 0.14 90 1015.4
20260505003051 55 232 0.0 3.0 0.03 0.13 0.13 90 1015.5
20260505001621 55 273 2.0 6.0 0.04 0.12 0.12 89 1015.3
20260505000126 55 260 1.0 5.0 0.04 0.11 0.11 89 1015.4
20260504234611 55 272 0.0 5.0 0.04 0.10 0.10 88 1015.4
20260504233104 55 281 2.0 6.0 0.07 0.10 0.10 88 1015.4
20260504231553 56 303 2.0 6.0 0.07 0.08 0.08 87 1015.4
20260504230053 57 304 1.0 4.0 0.07 0.07 0.07 86 1015.3
20260504224607 58 0 2.0 5.0 0.06 0.06 0.06 84 1015.3
20260504223056 58 286 1.0 5.0 0.03 0.03 0.03 82 1015.2
20260504221556 60 275 0.0 3.0 0.01 0.01 0.01 79 1015.2
20260504220059 61 284 4.0 9.0 0.00 0.00 0.00 75 1014.9
20260504214602 62 214 4.0 12.0 0.00 0.00 0.00 73 1014.8
20260504213125 62 259 4.0 9.0 0.00 0.00 0.00 69 1015.0
20260504211605 63 254 3.0 9.0 0.00 0.00 0.00 67 1015.1
20260504210058 64 248 5.0 13.0 0.00 0.00 0.00 68 1014.9